Tracking 29892 objects as of 21-Nov-2024
HD Live streaming from Space Station
objects crossing your sky now

DMSP 5D-2 F13 DEB

Track DMSP 5D-2 F13 DEB now!
10-day predictions


NORAD ID: 42328
Int'l Code: 1995-015JW
Perigee: 668.7 km
Apogee: 703.4 km
Inclination: 98.8 °
Period: 98.3 minutes
Semi major axis: 7057 km
RCS: Unknown
Launch date: March 24, 1995
Source: United States (US)
Launch site: AIR FORCE WESTERN TEST RANGE (AFWTR)

Note: This is SATELLITE DEBRIS
Your satellite tracking list
Your tracking list is empty




NASA's NSSDC Master Catalog

Two Line Element Set (TLE):
1 42328U 95015JW  24315.75826303  .00120026  00000-0  22201-1 0  9997
2 42328  98.8179 327.0976 0024604  84.5478 275.8528 14.64431814469090
Source of the keplerian elements: AFSPC